MFX7611 UAAA-UTTT

Flight info

Callsign MFX7611
Flight time N/A
Altitude 36000
Route EKLAT Z370 AGLEK Z817 TAR N143 KOLAM Z580 BAMUT Z554 DODUR
Aircraft B763/H-SDE3FGHIM3RWXY/LB1

Departure

Time 2026-04-25 11:59
Airport Almaty International Airport (UAAA)

Arrival

Time N/A
Airport UTTT
Time Latitude Longitude Altitude Speed Heading
2026-04-25 11:35 43.35110 77.01960 2242 ft 0 kts
2026-04-25 11:48 43.35109 77.01960 2243 ft 0 kts
2026-04-25 11:48 43.35107 77.01960 2243 ft 2 kts
2026-04-25 11:49 43.35092 77.01959 2242 ft 2 kts
2026-04-25 11:49 43.35077 77.01958 2242 ft 2 kts
2026-04-25 11:49 43.35066 77.01958 2242 ft 2 kts
2026-04-25 11:49 43.35051 77.01956 2243 ft 2 kts 15°
2026-04-25 11:50 43.35038 77.01947 2243 ft 2 kts 43°
2026-04-25 11:50 43.35030 77.01931 2243 ft 2 kts 68°
2026-04-25 11:50 43.35027 77.01914 2243 ft 1 kts 91°
2026-04-25 11:50 43.35027 77.01907 2243 ft 0 kts 94°
2026-04-25 11:53 43.35027 77.01911 2242 ft 0 kts 94°
2026-04-25 11:53 43.35025 77.01936 2242 ft 3 kts 92°
2026-04-25 11:54 43.35024 77.01979 2242 ft 5 kts 92°
2026-04-25 11:54 43.35023 77.02038 2242 ft 7 kts 92°
2026-04-25 11:54 43.35001 77.02216 2242 ft 10 kts 124°
2026-04-25 11:55 43.34942 77.02299 2242 ft 13 kts 137°
2026-04-25 11:55 43.34866 77.02394 2242 ft 16 kts 137°
2026-04-25 11:55 43.34793 77.02484 2242 ft 11 kts 135°
2026-04-25 11:55 43.34772 77.02585 2242 ft 11 kts 89°
2026-04-25 11:56 43.34774 77.02692 2242 ft 7 kts 86°
2026-04-25 11:56 43.34776 77.02726 2242 ft 0 kts 86°
2026-04-25 11:56 43.34776 77.02737 2242 ft 2 kts 86°
2026-04-25 11:57 43.34778 77.02780 2242 ft 5 kts 86°
2026-04-25 11:57 43.34781 77.02844 2242 ft 8 kts 88°
2026-04-25 11:57 43.34782 77.02942 2242 ft 12 kts 88°
2026-04-25 11:57 43.34779 77.03056 2242 ft 10 kts 77°
2026-04-25 11:58 43.34791 77.03091 2242 ft 3 kts 59°
2026-04-25 11:58 43.34808 77.03130 2242 ft 13 kts 56°
2026-04-25 11:58 43.35002 77.03522 2243 ft 85 kts 56°
2026-04-25 11:58 43.35482 77.04488 2244 ft 161 kts 55°
2026-04-25 11:59 43.36207 77.05929 2777 ft 199 kts 53°
2026-04-25 11:59 43.37077 77.07501 3663 ft 217 kts 51°
2026-04-25 11:59 43.37983 77.09189 4202 ft 227 kts 53°
2026-04-25 12:00 43.39903 77.12985 5141 ft 259 kts 54°
2026-04-25 12:00 43.40929 77.15026 5873 ft 266 kts 50°
2026-04-25 12:00 43.44252 77.17049 7312 ft 277 kts 354°
2026-04-25 12:01 43.46068 77.16264 8128 ft 281 kts 331°
2026-04-25 12:01 43.47571 77.14606 8961 ft 284 kts 307°
2026-04-25 12:01 43.48385 77.12253 9784 ft 288 kts 282°
2026-04-25 12:01 43.48365 77.09482 10547 ft 296 kts 257°
2026-04-25 12:02 43.46449 77.04126 11525 ft 333 kts 247°
2026-04-25 12:02 43.45770 77.01092 12012 ft 350 kts 257°
2026-04-25 12:02 43.45343 76.97695 12528 ft 368 kts 262°
2026-04-25 12:03 43.45044 76.94162 13062 ft 385 kts 264°
2026-04-25 12:03 43.44807 76.90565 13978 ft 389 kts 265°
2026-04-25 12:03 43.44590 76.86807 14942 ft 393 kts 266°
2026-04-25 12:03 43.44397 76.83179 15827 ft 397 kts 266°
2026-04-25 12:04 43.44205 76.79391 16730 ft 401 kts 266°
2026-04-25 12:04 43.44013 76.75533 17599 ft 405 kts 266°
2026-04-25 12:04 43.43825 76.71733 18463 ft 409 kts 266°
2026-04-25 12:04 43.43631 76.67793 19345 ft 414 kts 266°
2026-04-25 12:05 43.43437 76.63868 20214 ft 418 kts 266°
2026-04-25 12:05 43.43239 76.59873 21050 ft 423 kts 266°
2026-04-25 12:05 43.43037 76.55836 21888 ft 426 kts 266°
2026-04-25 12:05 43.42832 76.51756 22697 ft 431 kts 266°
2026-04-25 12:06 43.42623 76.47649 23467 ft 435 kts 266°
2026-04-25 12:06 43.42410 76.43466 24237 ft 439 kts 266°
2026-04-25 12:06 43.42195 76.39281 25031 ft 444 kts 266°
2026-04-25 12:06 43.41974 76.35001 25846 ft 448 kts 266°
2026-04-25 12:07 43.41756 76.30814 26570 ft 453 kts 266°
2026-04-25 12:07 43.41530 76.26505 27316 ft 457 kts 266°
2026-04-25 12:07 43.41300 76.22167 28071 ft 461 kts 266°
2026-04-25 12:07 43.41066 76.17760 28831 ft 465 kts 266°
2026-04-25 12:08 43.40828 76.13322 29655 ft 466 kts 265°
2026-04-25 12:08 43.40589 76.08914 30685 ft 463 kts 265°
2026-04-25 12:08 43.40353 76.04566 31728 ft 458 kts 265°
2026-04-25 12:08 43.40116 76.00243 32659 ft 455 kts 265°
2026-04-25 12:09 43.39879 75.95951 33578 ft 451 kts 265°
2026-04-25 12:09 43.39640 75.91645 34470 ft 447 kts 265°
2026-04-25 12:09 43.39406 75.87467 35216 ft 445 kts 265°
2026-04-25 12:09 43.39167 75.83221 35954 ft 442 kts 265°
2026-04-25 12:10 43.38935 75.79118 36209 ft 426 kts 265°
2026-04-25 12:10 43.38702 75.75036 36201 ft 433 kts 265°
2026-04-25 12:10 43.38217 75.66631 36153 ft 442 kts 265°
2026-04-25 12:11 43.37739 75.58319 36104 ft 439 kts 266°
2026-04-25 12:11 43.38356 75.50000 36105 ft 441 kts 283°
2026-04-25 12:12 43.39863 75.41799 36099 ft 441 kts 283°
2026-04-25 12:12 43.41364 75.33661 36098 ft 442 kts 283°
2026-04-25 12:13 43.42875 75.25468 36104 ft 441 kts 283°
2026-04-25 12:13 43.44381 75.17287 36103 ft 441 kts 283°
2026-04-25 12:14 43.45885 75.09090 36103 ft 441 kts 283°
2026-04-25 12:14 43.47379 75.00907 36102 ft 440 kts 283°
2026-04-25 12:15 43.48863 74.92751 36101 ft 440 kts 283°
2026-04-25 12:15 43.50315 74.84578 36097 ft 439 kts 280°
2026-04-25 12:16 43.50446 74.76217 36102 ft 440 kts 262°
2026-04-25 12:16 43.49182 74.67989 36100 ft 440 kts 258°
2026-04-25 12:17 43.47806 74.59776 36098 ft 440 kts 258°
2026-04-25 12:17 43.46390 74.51543 36097 ft 440 kts 258°
2026-04-25 12:18 43.44972 74.43394 36095 ft 440 kts 258°
2026-04-25 12:18 43.43533 74.35189 36098 ft 440 kts 258°
2026-04-25 12:19 43.41382 74.22989 36102 ft 440 kts 257°
2026-04-25 12:20 43.39956 74.14926 36104 ft 440 kts 257°
2026-04-25 12:20 43.38503 74.06748 36100 ft 440 kts 257°
2026-04-25 12:21 43.37054 73.98625 36101 ft 440 kts 257°
2026-04-25 12:21 43.35592 73.90469 36103 ft 440 kts 257°
2026-04-25 12:22 43.34118 73.82288 36101 ft 440 kts 257°
2026-04-25 12:22 43.32646 73.74146 36100 ft 440 kts 257°
2026-04-25 12:23 43.31160 73.65963 36097 ft 440 kts 257°
2026-04-25 12:23 43.29675 73.57828 36098 ft 440 kts 257°
2026-04-25 12:24 43.28183 73.49686 36099 ft 440 kts 257°
2026-04-25 12:24 43.26687 73.41555 36096 ft 440 kts 257°
2026-04-25 12:25 43.25187 73.33446 36102 ft 440 kts 256°
2026-04-25 12:25 43.23677 73.25311 36103 ft 440 kts 256°
2026-04-25 12:26 43.22158 73.17165 36101 ft 440 kts 256°
2026-04-25 12:26 43.20652 73.09116 36101 ft 439 kts 256°
2026-04-25 12:27 43.19118 73.00994 36100 ft 440 kts 256°
2026-04-25 12:27 43.17579 72.92886 36100 ft 440 kts 255°
2026-04-25 12:28 43.16031 72.84778 36099 ft 440 kts 255°
2026-04-25 12:28 43.14487 72.76714 36099 ft 440 kts 255°
2026-04-25 12:29 43.12931 72.68623 36098 ft 440 kts 255°
2026-04-25 12:29 43.11372 72.60551 36098 ft 440 kts 255°
2026-04-25 12:30 43.09810 72.52490 36097 ft 440 kts 255°
2026-04-25 12:30 43.08234 72.44397 36097 ft 440 kts 255°
2026-04-25 12:31 43.06649 72.36289 36097 ft 440 kts 255°
2026-04-25 12:31 43.05057 72.28182 36102 ft 440 kts 255°
2026-04-25 12:32 43.03466 72.20115 36101 ft 440 kts 255°
2026-04-25 12:32 43.01879 72.12093 36101 ft 440 kts 255°
2026-04-25 12:33 43.00280 72.04049 36100 ft 440 kts 255°
2026-04-25 12:33 42.98667 71.95969 36099 ft 440 kts 255°
2026-04-25 12:34 42.97058 71.87935 36099 ft 440 kts 255°
2026-04-25 12:34 42.95546 71.79879 36099 ft 440 kts 258°
2026-04-25 12:35 42.94244 71.71789 36100 ft 440 kts 258°
2026-04-25 12:35 42.92926 71.63692 36099 ft 440 kts 258°
2026-04-25 12:36 42.91599 71.55595 36099 ft 439 kts 258°
2026-04-25 12:36 42.90262 71.47473 36096 ft 441 kts 258°
2026-04-25 12:37 42.88931 71.39435 36097 ft 440 kts 258°
2026-04-25 12:37 42.87655 71.31762 36103 ft 440 kts 257°
2026-04-25 12:38 42.85645 71.23604 35899 ft 444 kts 249°
2026-04-25 12:38 42.84502 71.19741 35321 ft 440 kts 249°
2026-04-25 12:38 42.83347 71.15865 34712 ft 437 kts 249°
2026-04-25 12:38 42.82206 71.12056 34087 ft 434 kts 249°
2026-04-25 12:39 42.81076 71.08295 33450 ft 435 kts 249°
2026-04-25 12:39 42.79919 71.04454 32785 ft 438 kts 248°
2026-04-25 12:39 42.78771 71.00656 32732 ft 433 kts 249°
2026-04-25 12:40 42.76478 70.93092 32740 ft 435 kts 249°
2026-04-25 12:40 42.75306 70.89232 32337 ft 443 kts 250°
2026-04-25 12:40 42.74214 70.85642 31631 ft 442 kts 250°
2026-04-25 12:40 42.73048 70.81812 30883 ft 440 kts 250°
2026-04-25 12:41 42.71910 70.78083 30151 ft 439 kts 250°
2026-04-25 12:41 42.70737 70.74237 29396 ft 440 kts 249°
2026-04-25 12:41 42.69567 70.70410 28645 ft 439 kts 249°
2026-04-25 12:41 42.68417 70.66656 27902 ft 436 kts 249°
2026-04-25 12:42 42.67260 70.62884 27207 ft 432 kts 249°
2026-04-25 12:42 42.66512 70.60357 26889 ft 426 kts 250°
2026-04-25 12:42 42.65155 70.55449 26125 ft 421 kts 248°
2026-04-25 12:42 42.63785 70.51972 25606 ft 418 kts 238°
2026-04-25 12:43 42.62001 70.48918 25129 ft 419 kts 229°
2026-04-25 12:43 42.59832 70.46317 24641 ft 419 kts 219°
2026-04-25 12:43 42.54837 70.42409 23652 ft 415 kts 211°
2026-04-25 12:44 42.52288 70.40543 23147 ft 412 kts 211°
2026-04-25 12:44 42.49845 70.38755 22662 ft 409 kts 211°
2026-04-25 12:44 42.44989 70.35198 21702 ft 404 kts 211°
2026-04-25 12:45 42.43389 70.34028 21390 ft 402 kts 210°
2026-04-25 12:45 42.40164 70.31669 20761 ft 398 kts 210°
2026-04-25 12:45 42.35338 70.28143 19821 ft 393 kts 209°
2026-04-25 12:46 42.32948 70.26399 19354 ft 391 kts 209°
2026-04-25 12:46 42.30590 70.24680 18896 ft 389 kts 209°
2026-04-25 12:46 42.28217 70.22952 18433 ft 387 kts 209°
2026-04-25 12:46 42.25870 70.21244 17975 ft 384 kts 209°
2026-04-25 12:47 42.23541 70.19550 17522 ft 382 kts 209°
2026-04-25 12:47 42.21196 70.17847 17066 ft 380 kts 208°
2026-04-25 12:47 42.18887 70.16170 16616 ft 378 kts 208°
2026-04-25 12:47 42.16631 70.14419 16163 ft 376 kts 215°
2026-04-25 12:48 42.14741 70.12060 15747 ft 374 kts 230°
2026-04-25 12:48 42.13386 70.09095 15375 ft 375 kts 245°
2026-04-25 12:48 42.12661 70.05750 15001 ft 376 kts 259°
2026-04-25 12:48 42.12346 70.02234 14631 ft 376 kts 262°
2026-04-25 12:49 42.12033 69.98764 14251 ft 373 kts 258°
2026-04-25 12:49 42.11272 69.95437 13864 ft 369 kts 243°
2026-04-25 12:49 42.09873 69.92542 13485 ft 366 kts 228°
2026-04-25 12:49 42.07970 69.90312 13107 ft 364 kts 213°
2026-04-25 12:50 42.05736 69.88792 12736 ft 363 kts 202°
2026-04-25 12:50 42.03396 69.87703 12340 ft 361 kts 198°
2026-04-25 12:50 42.01013 69.86620 11936 ft 360 kts 199°
2026-04-25 12:50 41.98648 69.85507 11532 ft 358 kts 200°
2026-04-25 12:51 41.96303 69.84383 11129 ft 356 kts 200°
2026-04-25 12:51 41.93995 69.83268 10731 ft 354 kts 200°
2026-04-25 12:51 41.91685 69.82146 10368 ft 351 kts 200°
2026-04-25 12:51 41.89466 69.81066 10362 ft 352 kts 200°
2026-04-25 12:52 41.87098 69.79913 10785 ft 360 kts 200°
2026-04-25 12:52 41.84779 69.78782 11908 ft 359 kts 200°
2026-04-25 12:52 41.82428 69.77638 12846 ft 363 kts 200°
2026-04-25 12:52 41.80055 69.76484 13182 ft 374 kts 200°
2026-04-25 12:53 41.77652 69.75315 13124 ft 361 kts 200°
2026-04-25 12:53 41.75303 69.74174 12936 ft 359 kts 200°
2026-04-25 12:53 41.72930 69.73051 12941 ft 366 kts 198°
2026-04-25 12:53 41.70431 69.72455 12383 ft 369 kts 182°
2026-04-25 12:54 41.67867 69.72742 11885 ft 364 kts 172°
2026-04-25 12:54 41.65423 69.73274 11393 ft 360 kts 172°
2026-04-25 12:54 41.62981 69.73809 10893 ft 356 kts 172°
2026-04-25 12:54 41.60685 69.74318 10421 ft 355 kts 172°
2026-04-25 12:55 41.58266 69.74856 9921 ft 352 kts 172°
2026-04-25 12:55 41.56653 69.75216 9585 ft 351 kts 172°
2026-04-25 12:55 41.53473 69.75933 8867 ft 350 kts 172°
2026-04-25 12:55 41.51086 69.76059 8238 ft 348 kts 187°
2026-04-25 12:56 41.48727 69.75284 7611 ft 347 kts 201°
2026-04-25 12:56 41.46502 69.74153 6998 ft 347 kts 201°
2026-04-25 12:56 41.44331 69.73061 6348 ft 315 kts 201°
2026-04-25 12:56 41.42404 69.72085 5829 ft 287 kts 202°
2026-04-25 12:57 41.40599 69.71194 5312 ft 275 kts 201°
2026-04-25 12:57 41.38827 69.70326 4810 ft 270 kts 201°
2026-04-25 12:57 41.37119 69.69488 4460 ft 249 kts 201°
2026-04-25 12:57 41.35685 69.68532 4356 ft 220 kts 224°
2026-04-25 12:58 41.34899 69.66902 4399 ft 203 kts 253°
2026-04-25 12:58 41.34452 69.65158 4376 ft 193 kts 248°
2026-04-25 12:58 41.33898 69.63557 4382 ft 190 kts 244°
2026-04-25 12:58 41.33291 69.62030 4257 ft 190 kts 242°
2026-04-25 12:59 41.32603 69.60434 3976 ft 205 kts 240°
2026-04-25 12:59 41.31841 69.58759 3984 ft 216 kts 239°
2026-04-25 12:59 41.31045 69.57057 3964 ft 216 kts 239°
2026-04-25 12:59 41.30252 69.55389 3963 ft 215 kts 239°
2026-04-25 13:00 41.29446 69.53708 3965 ft 216 kts 239°
2026-04-25 13:00 41.28901 69.52573 3964 ft 216 kts 239°
2026-04-25 13:00 41.28291 69.50124 3773 ft 212 kts 262°
2026-04-25 13:00 41.28070 69.48135 3360 ft 221 kts 262°
2026-04-25 13:01 41.27843 69.46159 3189 ft 218 kts 262°
2026-04-25 13:01 41.27618 69.44167 3051 ft 213 kts 262°
2026-04-25 13:01 41.27402 69.42247 2990 ft 205 kts 262°
2026-04-25 13:01 41.27200 69.40434 3005 ft 191 kts 262°
2026-04-25 13:02 41.27013 69.38718 2833 ft 190 kts 262°